Date String (YYYY-MM-DD hh:mm:ss) UTC,Instrument flags,Ambient pressure (hPa),Sample flow (lpm),Bypass flow (lpm),Sample temperature (°C),Ambient temperature (°C),ASC tube jacket temperature (°C),LED temperature (°C),Box temperature (°C),Sample RH (%),Span deviation,Mass concentration (μg/m³),Mass concentration (μg/m³),Mass concentration (μg/m³)
DateTimeUTC,F1_M11,P_M11,Q1_M11,Q2_M11,T1_M11,T2_M11,T3_M11,T4_M11,T5_M11,U1_M11,ZSPAN_M11,X0_M11,X2_M11,X1_M11
2023-01-15 00:00:00,,0815.3,5.00,0.00,26.9,25.5,00.0,35.7,28.6,10.4,0000.0,0001.82,0001.06,0000.95
2023-01-15 00:01:00,,0815.4,5.00,0.00,26.8,25.5,00.0,35.7,28.6,10.4,0000.0,0001.69,0000.96,0000.86
2023-01-15 00:02:00,,0815.3,4.99,0.00,26.9,25.5,00.0,35.7,28.6,10.4,0000.0,0001.46,0000.85,0000.76
2023-01-15 00:03:00,,0815.2,5.00,0.00,26.9,25.5,00.0,35.7,28.6,10.3,0000.0,0001.15,0000.78,0000.69
2023-01-15 00:04:00,,0815.3,5.00,0.00,26.9,25.5,00.0,35.7,28.6,10.3,0000.0,0001.16,0000.72,0000.63
2023-01-15 00:05:00,,0815.3,5.01,0.00,26.8,25.5,00.0,35.7,28.6,10.5,0000.0,0000.91,0000.59,0000.55
2023-01-15 00:06:00,,0815.3,4.98,0.00,26.8,25.5,00.0,35.7,28.5,10.4,0000.0,0000.73,0000.52,0000.50
2023-01-15 00:07:00,,0815.3,4.99,0.00,26.8,25.4,00.0,35.7,28.5,10.4,0000.0,0000.68,0000.48,0000.46
2023-01-15 00:08:00,,0815.3,5.01,0.00,26.8,25.3,00.0,35.7,28.5,10.3,0000.0,0000.65,0000.45,0000.43
2023-01-15 00:09:00,,0815.3,5.00,0.00,26.8,25.3,00.0,35.7,28.5,10.2,0000.0,0000.64,0000.44,0000.42
2023-01-15 00:10:00,,0815.3,5.01,0.00,26.8,25.3,00.0,35.7,28.5,10.2,0000.0,0000.63,0000.44,0000.41
2023-01-15 00:11:00,,0815.4,5.00,0.00,26.8,25.3,00.0,35.7,28.5,10.4,0000.0,0000.63,0000.44,0000.41
2023-01-15 00:12:00,,0815.4,5.00,0.00,26.8,25.3,00.0,35.7,28.5,10.4,0000.0,0000.63,0000.44,0000.40
2023-01-15 00:13:00,,0815.4,4.99,0.00,26.8,25.4,00.0,35.7,28.5,10.4,0000.0,0000.63,0000.43,0000.39
2023-01-15 00:14:00,,0815.4,5.00,0.00,26.8,25.4,00.0,35.7,28.5,10.5,0000.0,0000.61,0000.42,0000.38
2023-01-15 00:15:00,,0815.4,5.00,0.00,26.8,25.4,00.0,35.7,28.5,10.5,0000.0,0000.50,0000.42,0000.38
2023-01-15 00:16:00,,0815.4,5.00,0.00,26.8,25.4,00.0,35.7,28.5,10.5,0000.0,0000.55,0000.43,0000.38
2023-01-15 00:17:00,,0815.4,4.98,0.00,26.8,25.4,00.0,35.7,28.5,10.7,0000.0,0000.56,0000.43,0000.38
2023-01-15 00:18:00,,0815.4,5.00,0.00,26.8,25.4,00.0,35.7,28.5,10.8,0000.0,0000.61,0000.45,0000.37
2023-01-15 00:19:00,,0815.4,5.00,0.00,26.8,25.4,00.0,35.7,28.5,10.8,0000.0,0000.65,0000.46,0000.37
2023-01-15 00:20:00,,0815.4,5.00,0.00,26.8,25.4,00.0,35.7,28.5,10.5,0000.0,0000.66,0000.47,0000.39
2023-01-15 00:21:00,,0815.4,5.01,0.00,26.8,25.4,00.0,35.6,28.5,10.5,0000.0,0000.68,0000.48,0000.40
2023-01-15 00:22:00,,0815.3,4.99,0.00,26.8,25.4,00.0,35.6,28.5,10.7,0000.0,0000.75,0000.51,0000.42
2023-01-15 00:23:00,,0815.4,5.03,0.00,26.8,25.5,00.0,35.6,28.6,10.7,0000.0,0001.05,0000.54,0000.45
2023-01-15 00:24:00,,0815.4,5.02,0.00,26.8,25.5,00.0,35.7,28.6,10.6,0000.0,0001.39,0000.57,0000.47
2023-01-15 00:25:00,,0815.4,5.00,0.00,26.8,25.5,00.0,35.7,28.6,10.5,0000.0,0001.47,0000.61,0000.49
2023-01-15 00:26:00,,0815.4,5.00,0.00,26.8,25.5,00.0,35.7,28.6,10.6,0000.0,0001.49,0000.63,0000.51
2023-01-15 00:27:00,,0815.4,4.99,0.00,26.8,25.4,00.0,35.7,28.6,10.5,0000.0,0001.50,0000.65,0000.53
2023-01-15 00:28:00,,0815.4,5.00,0.00,26.8,25.4,00.0,35.7,28.6,10.7,0000.0,0001.55,0000.69,0000.55
2023-01-15 00:29:00,,0815.4,5.00,0.00,26.8,25.4,00.0,35.7,28.6,10.6,0000.0,0001.60,0000.72,0000.56
2023-01-15 00:30:00,,0815.4,5.01,0.00,26.8,25.4,00.0,35.7,28.6,10.6,0000.0,0001.65,0000.73,0000.57
2023-01-15 00:31:00,,0815.7,4.99,0.00,26.8,25.3,00.0,35.7,28.6,10.7,0000.0,0001.67,0000.75,0000.58
2023-01-15 00:32:00,,0816.0,5.00,0.00,26.8,25.2,00.0,35.7,28.5,10.8,0000.0,0001.72,0000.76,0000.57
2023-01-15 00:33:00,,0815.9,5.00,0.00,26.8,25.2,00.0,35.7,28.5,10.9,0000.0,0001.74,0000.75,0000.56
2023-01-15 00:34:00,,0815.9,5.00,0.00,26.8,25.2,00.0,35.6,28.5,10.8,0000.0,0001.49,0000.74,0000.55
2023-01-15 00:35:00,,0815.9,5.01,0.00,26.8,25.2,00.0,35.7,28.5,10.9,0000.0,0001.18,0000.74,0000.54
2023-01-15 00:36:00,,0816.1,5.00,0.00,26.8,25.2,00.0,35.7,28.5,11.0,0000.0,0001.21,0000.75,0000.54
2023-01-15 00:37:00,,0815.8,5.00,0.00,26.7,25.2,00.0,35.6,28.5,11.4,0000.0,0001.40,0000.88,0000.64
2023-01-15 00:38:00,,0816.1,4.99,0.00,26.7,25.2,00.0,35.6,28.5,12.7,0000.0,0002.43,0001.61,0001.26
2023-01-15 00:39:00,,0816.0,4.99,0.00,26.7,25.2,00.0,35.6,28.5,13.0,0000.0,0003.91,0002.76,0002.35
2023-01-15 00:40:00,,0816.0,5.00,0.00,26.7,25.0,00.0,35.6,28.4,12.6,0000.0,0005.18,0003.54,0003.28
2023-01-15 00:41:00,,0816.0,5.00,0.00,26.7,24.8,00.0,35.6,28.3,12.5,0000.0,0006.51,0004.07,0003.78
2023-01-15 00:42:00,,0816.0,5.00,0.00,26.6,24.7,00.0,35.6,28.3,12.0,0000.0,0007.81,0004.56,0004.25
2023-01-15 00:43:00,,0816.1,5.00,0.00,26.6,24.5,00.0,35.6,28.2,11.8,0000.0,0008.27,0004.97,0004.63
2023-01-15 00:44:00,,0816.1,5.00,0.00,26.5,24.4,00.0,35.6,28.1,12.0,0000.0,0008.67,0005.35,0005.01
2023-01-15 00:45:00,,0815.9,5.00,0.00,26.5,24.3,00.0,35.5,28.1,12.2,0000.0,0009.18,0005.81,0005.45
2023-01-15 00:46:00,,0816.0,5.01,0.00,26.4,24.2,00.0,35.5,28.0,12.4,0000.0,0009.80,0006.33,0005.97
2023-01-15 00:47:00,,0815.9,4.99,0.00,26.4,24.1,00.0,35.5,27.9,12.3,0000.0,0010.44,0006.85,0006.47
2023-01-15 00:48:00,,0816.1,5.00,0.00,26.3,24.1,00.0,35.5,27.9,11.8,0000.5,0010.81,0007.16,0006.79
2023-01-15 00:49:00,,0816.0,5.00,0.00,26.3,24.1,00.0,35.4,27.8,12.4,0000.1,0010.80,0007.19,0006.84
2023-01-15 00:50:00,,0816.0,5.00,0.00,26.2,24.0,00.0,35.4,27.8,12.5,0000.4,0010.59,0007.05,0006.75
2023-01-15 00:51:00,,0816.1,5.00,0.00,26.2,24.0,00.0,35.3,27.8,11.9,0002.5,0010.30,0006.80,0006.50
2023-01-15 00:52:00,,0816.0,4.99,0.00,26.2,24.0,00.0,35.3,27.7,12.1,0000.0,0009.91,0006.62,0006.36
2023-01-15 00:53:00,,0816.1,4.99,0.00,26.1,24.0,00.0,35.3,27.7,11.6,0000.0,0009.38,0006.42,0006.15
2023-01-15 00:54:00,,0816.1,5.00,0.00,26.1,24.0,00.0,35.3,27.7,11.6,0000.0,0009.32,0006.25,0005.99
2023-01-15 00:55:00,,0816.1,5.01,0.00,26.1,24.0,00.0,35.2,27.7,11.6,0000.0,0009.10,0006.07,0005.82
2023-01-15 00:56:00,,0816.1,5.01,0.00,26.0,24.0,00.0,35.2,27.6,11.5,0000.0,0008.79,0005.80,0005.58
2023-01-15 00:57:00,,0816.0,5.01,0.00,26.0,23.9,00.0,35.2,27.6,11.6,0000.0,0008.39,0005.48,0005.25
2023-01-15 00:58:00,,0815.7,4.99,0.00,26.0,23.9,00.0,35.1,27.5,11.7,0000.0,0007.96,0005.16,0004.93
2023-01-15 00:59:00,,0815.8,4.99,0.00,25.9,23.8,00.0,35.1,27.5,11.7,0000.0,0007.78,0005.02,0004.79
